Location: Hilde
(52.9479°N, 6.4449°E)
Time: 12:37:50
(UTC+00:00)

RESURS DK-1 - Pass Details

Date: 15 May 2026
Orbit: 522 x 531 km, 69.9° (Epoch: 10 June)

Event Time Altitude Azimuth Distance (km) Brightness Sun altitude
Rises 22:13:06 0° 326° (NW) 2,683 7.4 -16.1°
Reaches altitude 10° 22:15:17 10° 326° (NW) 1,790 6.1 -16.2°
Maximum altitude 22:19:17 86° 239° (WSW) 540 2.2 -16.4°
Enters shadow 22:20:55 35° 151° (SSE) 881 2.8 -16.4°
